Weather in Kudelnyy Klyuch

Russia / Novosibirsk Oblast     55°09′27″N   84°15′12″E
temp.,
°C
wind,
m/s
gust,
m/s
humid.,
%
clouds,
%
prec.,
mm/h
press.,
hPa
HPBL,
m
3 march, wed
wed301:00−16ssw119695 0.2 101720
04:00−16ssw119792 0.1 101720
07:00−19ssw1110082 0.1 101820
10:00−15sw129590 0.1 1018122
13:00−11sw248891 0.1 1018396
16:00−9sw3590100 0.1 1019498
19:00−13ssw3395100 0.1 102060
22:00−14ssw4109480 0.0 1022208
4 march, thu
thu401:00−15ssw5129479 0.0 1023298
04:00−15s5149274 0.0 1022358
07:00−13ssw6158985 0.0 1022437
10:00−11ssw81688100 0.1 1021570
13:00−7ssw91687100 0.1 1020687
16:00−5ssw91589100 0.0 1019813
19:00−5ssw71494100 0.4 1018783
22:00−5ssw81690100 0.4 1017681
5 march, fri
fri501:00−7ssw81587100 0.4 1016520
04:00−7ssw81586100 0.0 1014509
07:00−8ssw7168299 0.0 1013503
10:00−6ssw81784100 0.0 1012659
13:00−4sw101591100 0.3 1012899
16:00−2sw101787100 0.4 10121636
19:00−5wsw71683100 0.5 1016813
22:00−6sw81588100 0.1 1017900
6 march, sat
sat601:00−7sw71689100 0.4 1018821
04:00−6sw71490100 0.1 1019763
07:00−6sw71490100 0.1 1019707
10:00−5sw81593100 0.4 1018806
13:00−4sw101687100 1.0 1016972
16:00−3sw101780100 0.0 1014969
19:00−5sw71683100 0.0 1013929
22:00−5sw91891100 0.1 1011862
7 march, sun
sun701:00−4sw91791100 0.5 1011908
04:00−4sw91787100 0.1 1011795
07:00−4wsw71491100 0.3 10141049
10:00−7wsw8158390 0.0 1016686
13:00−7wsw7137792 0.0 1018681
16:00−6wsw61077100 0.0 1018644
19:00−7ssw3386100 0.0 101870
22:00−5s41293100 0.0 1016385